Location: Black Swamp Observatory
(41.3920°N, 84.1250°W)
Time: 12:53:05
(UTC-04:00)

Vanguard 2 - Pass Details

Date: 29 January 2022
Orbit: 552 x 2935 km, 32.9° (Epoch: 24 May)

Event Time Altitude Azimuth Distance (km) Brightness Sun altitude
Rises 21:17:01 0° 254° (WSW) 3,895 11.9 -39.0°
Reaches altitude 10° 21:19:20 10° 249° (WSW) 3,181 11.2 -39.4°
Enters shadow 21:25:12 47° 211° (SSW) 2,011 9.5 -40.5°
